IRNSS-1I (43286 NORAD) Tracking and Keplerian Element Data

This shows tracking and keplerian element data for the satellite.

Feedback or suggestion? Click here.




ElementValue
Catalog43286
NameIRNSS-1I
Epoch Orbit1278
Epoch Day269.63073072
Epoch Year2021
RAAN101.6703
Inclination29.2952
Eccentricity0.0020232
Argument of Perigee178.2501
Mean Anonmoly7.9037
Mean Motion1.00275919
Decay Rate1.03E-06
L11 43286U 18035A 21269.63073072 .00000103 00000-0 00000-0 0 9992
L22 43286 29.2952 101.6703 0020232 178.2501 7.9037 1.00275919 12783

Live tracking and technical data element details for IRNSS-1I (NORAD 43286). IRNSS-1I can be tracked NOW for your location showing map with azimuth and elevation plus other details from your city location.

Track the satellite on the map from your city or location and see movement details for azimuth, elevation, latitude, longitude, range, height, and movement on the map or in text.







IsCatalogInMostPopularTable: catalog: 43286, numindb: 3565
Update: records affected: 1



GetName: 43286 IRNSS-1I

Hit Count: updated at: Tue, 28 Sep 2021 17:00:29 GMT